Regional Weather Roundup
Issued by NWS Charleston, WV

Home | Current Version | Previous Version | Text Only | Print | Product List | Glossary On
Versions: 1 2 3 4 5 6 7 8 9 10 11 12 13 14 15 16 17 18 19 20 21 22 23 24 25 26 27 28 29 30 31 32 33 34 35 36 37 38 39 40 41 42 43 44 45 46 47 48 49 50
000
ASUS41 KRLX 260410
RWRRLX
West Virginia Regional Weather Roundup
National Weather Service Charleston WV
1200 AM EDT TUE MAY 26 2015

Note: "fair" indicates few or no clouds below 12,000 feet with no
significant weather and/or obstructions to visibility.

WVZ003-260500-
Northern Panhandle of West Virginia

CITY           SKY/WX    TMP DP  RH WIND       PRES   REMARKS
WHEELING       NOT AVBL
$$

WVZ009-260500-
Northwest West Virginia

CITY           SKY/WX    TMP DP  RH WIND       PRES   REMARKS
PARKERSBURG    MOCLDY    67  62  84 SE5       30.16S
$$

WVZ006-260500-
Western West Virginia

CITY           SKY/WX    TMP DP  RH WIND       PRES   REMARKS
HUNTINGTON     PTCLDY    68  65  90 CALM      30.13R
$$

WVZ015-260500-
West Central West Virginia

CITY           SKY/WX    TMP DP  RH WIND       PRES   REMARKS
CHARLESTON     MOCLDY    69  64  84 CALM      30.14S
$$

WVZ022-031-260500-
North Central West Virginia

CITY           SKY/WX    TMP DP  RH WIND       PRES   REMARKS
CLARKSBURG     CLEAR     67  61  81 CALM      30.17R
MORGANTOWN     PTCLDY    67  58  72 S3        30.17S
$$

WVZ025-035-042-045-260500-
Southern West Virginia

CITY           SKY/WX    TMP DP  RH WIND       PRES   REMARKS
BECKLEY        MOCLDY    68  55  63 S12       30.25S
LOGAN            N/A     73  63  68 CALM      30.16R
BLUEFIELD      MOCLDY    69  54  58 SE8G20    30.29R
LEWISBURG      PTCLDY    67  55  64 CALM      30.27S
$$

WVZ047-260500-
Northern Mountains of West Virginia

CITY           SKY/WX    TMP DP  RH WIND       PRES   REMARKS
ELKINS         CLEAR     59  55  87 CALM      30.23S
$$

WVZ052-260500-
Eastern Panhandle of West Virginia

CITY           SKY/WX    TMP DP  RH WIND       PRES   REMARKS
MARTINSBURG    CLEAR     68  56  65 S5        30.18F
PETERSBURG     CLEAR     72  55  55 SE5       30.20R
$$


USA.gov is the U.S. government's official web portal to all federal, state and local government web resources and services.